sat.trackr.live / text

‹ back to catalog

STARLINK-31230

NORAD 58890 · 2024-020Q

PAYLOAD ACTIVE UNKNOWN

§ Identity

Operator
Country
US
Launch date
2024-01-29
Launch site
AFWTR
Launch vehicle
Mass (kg)
RCS (m²)

Purposes: comms

External: N2YO · Heavens-Above · Gunter

§ Orbital elements

Epoch: 2026-09-20T00:50:10.025664Z

Period
93.85 min
Inclination
53.1610°
Eccentricity
0.0000896
Mean motion
15.34384977 rev/d
Perigee alt
462.1 km
Apogee alt
463.4 km
Semi-major
6,840.9 km
B*
8.3111e-6
RAAN
133.5341°
Arg perigee
114.8027°
Mean anomaly
245.3069°
Rev number
14,791

§ Raw data

STARLINK-312301 58890U 24020Q   26263.03483826 -.00000095  00000+0  83111-5 0  99942 58890  53.1610 133.5341 0000896 114.8027 245.3069 15.34384977147916

JSON: /api/v1/satellites/58890 · /tle

For live sub-satellite position, see the globe view (requires WebGL).

§ Visibility from observer

Set your observer location to see the next 7 days of passes ≥ 10°. The values pass through the URL so the page stays shareable.

No JS? Fill the form by hand. The geolocation button needs JavaScript.